Location: Santiago
(33.4378°S, 70.6505°W)
Time: 14:48:57
(UTC+00:00)

ISS - Pass Details

Date: 11 July 2025
Orbit: 413 x 417 km, 51.6° (Epoch: 13 July)

Event Time Altitude Azimuth Distance (km) Brightness Sun altitude
Rises 11:19:18 0° 332° (NNW) 2,351 0.0 -5.9°
Reaches altitude 10° 11:21:28 10° 340° (NNW) 1,495 -0.9 -5.4°
Maximum altitude 11:24:36 37° 49° (NE) 678 -1.9 -4.8°
Drops below altitude 10° 11:27:46 10° 117° (ESE) 1,512 -0.3 -4.2°
Sets 11:29:58 0° 125° (SE) 2,383 0.5 -3.8°
